Location: ???????
(55.8930°N, 38.0586°E)
Time: 20:20:49
(UTC+00:00)

Cosmos 1484 Rocket - Pass Details

Date: 14 April 2024
Orbit: 480 x 525 km, 97.6° (Epoch: 18 May)

Event Time Altitude Azimuth Distance (km) Brightness Sun altitude
Rises 01:25:41 0° 21° (NNE) 2,593 7.2 -8.3°
Reaches altitude 10° 01:27:58 10° 32° (NNE) 1,696 6.5 -8.0°
Maximum altitude 01:31:13 30° 96° (E) 901 4.6 -7.6°
Drops below altitude 10° 01:34:24 10° 159° (SSE) 1,665 5.2 -7.2°
Sets 01:36:37 0° 170° (S) 2,536 6.0 -7.0°
